Dewpoint
62 62 62 61 60 61 61 65 68 67 68 68 67 67 67 67 67 65 65 64 64 67 70 70 70 70 69 69 68 67 68 67 67 67 66 65 65 65 65 64 64 65 65
54 54 55 55 53 56 58 60 60 63 66 69 68 67 67 67 67 67 65 65 63 64 66 69 70 70 70 69 68 67 67 67 67 67 66 65 65 64 64 64 63 63 64
49 50 49 50 52 53 55 55 56 58 59 60 64 67 67 67 67 66 66 66 65 62 63 66 68 69 69 69 68 67 67 67 66 66 65 65 64 64 63 63 62 62 62
47 48 46 48 50 51 53 53 54 54 55 57 58 58 60 63 66 67 66 66 66 65 63 63 65 67 68 68 69 68 67 67 66 65 65 64 63 64 63 62 62 62 62
47 47 47 48 50 49 50 51 52 54 52 53 54 56 57 57 57 65 66 66 66 66 67 64 63 64 66 67 68 69 68 67 66 65 65 63 63 63 62 61 61 61 62
45 46 47 47 47 48 48 48 51 52 53 54 51 51 54 54 56 60 64 66 65 65 65 65 65 63 63 66 67 68 69 68 67 66 65 64 62 61 61 61 60 61 62
45 46 46 46 46 46 47 48 49 51 50 52 50 48 49 50 54 57 59 62 62 63 65 65 64 64 65 63 66 67 68 69 68 66 64 63 62 61 60 60 60 61 61
45 44 46 46 45 45 47 48 49 49 50 52 50 48 45 45 54 51 50 54 52 54 54 56 63 64 64 65 65 65 66 67 67 66 64 63 62 61 61 60 60 61 61
45 46 46 46 46 47 48 49 49 49 47 49 51 50 44 42 46 46 49 49 52 49 50 52 54 54 55 60 63 64 62 63 65 65 64 63 62 61 61 60 60 61 62
45 45 46 45 46 48 48 49 50 50 49 47 49 51 51 50 44 40 44 46 48 49 51 51 52 52 52 53 54 55 60 59 62 64 64 63 62 61 61 60 60 62 61
45 45 46 46 46 46 46 47 48 49 49 48 47 47 47 47 47 45 41 38 43 45 47 49 51 53 52 53 55 53 52 55 59 62 63 62 62 62 61 60 61 62 62
43 45 45 45 45 44 45 45 45 45 46 47 47 47 45 43 42 43 41 41 42 43 45 47 49 50 52 54 54 53 52 51 54 60 61 61 61 61 60 60 61 62 62
43 43 43 43 43 43 43 43 44 45 45 45 45 45 45 45 45 45 44 42 41 42 43 45 46 50 51 53 53 52 52 50 51 53 59 60 59 59 58 59 60 61 61
44 44 43 42 42 42 42 42 43 44 44 44 43 43 43 43 44 44 43 43 41 41 41 43 44 48 49 52 53 51 52 50 50 50 56 58 58 57 56 57 58 59 60
43 44 43 42 42 41 41 41 42 42 42 42 42 42 41 41 42 42 42 42 41 38 39 39 41 45 50 51 51 52 52 50 50 50 52 56 56 56 55 56 56 57 58
44 44 43 42 41 41 40 40 40 40 40 41 39 39 39 40 40 40 41 40 41 41 38 42 44 46 49 48 49 50 51 49 49 49 50 52 55 55 54 54 55 55 56
43 42 43 42 40 40 40 39 38 38 37 37 37 37 37 37 38 38 39 39 40 40 38 40 43 45 46 47 48 49 49 51 52 49 49 50 53 53 53 53 53 54 54
42 41 42 41 40 39 38 38 37 36 36 36 35 35 34 34 35 36 38 37 38 39 39 36 39 41 44 46 47 47 47 49 51 51 49 49 51 52 52 52 52 52 52
39 39 39 40 39 38 37 37 35 36 35 34 34 34 34 34 35 36 35 35 35 36 37 35 36 40 43 44 44 43 46 48 50 51 49 48 50 51 51 51 51 51 50
37 37 37 38 39 37 35 34 34 34 33 33 35 35 34 34 34 34 34 33 33 33 33 33 34 38 40 42 41 41 43 47 48 53 52 49 50 50 51 51 50 49 49
36 36 36 36 36 34 32 33 32 34 33 33 33 32 34 35 35 35 34 33 32 31 32 32 33 35 36 36 37 39 41 43 47 53 52 51 51 52 52 50 50 49 48
36 36 35 34 34 31 32 33 33 32 30 30 31 32 33 34 35 35 34 33 33 31 30 32 31 33 34 36 37 37 39 40 41 51 51 50 51 51 52 52 49 48 47
36 36 35 34 33 33 33 34 34 32 32 31 31 33 31 30 33 33 31 32 31 33 31 32 32 33 33 35 35 34 37 40 42 45 50 48 51 50 52 52 47 47 46
37 36 36 34 33 31 33 33 34 33 33 31 33 33 32 32 33 32 31 30 31 31 32 31 33 33 34 35 35 36 38 42 42 43 51 43 50 49 51 51 46 46 45
37 38 37 34 34 33 33 33 33 31 31 30 31 32 32 31 31 32 31 29 29 30 31 32 33 33 34 34 35 36 39 37 36 35 37 40 37 39 48 49 47 45 45
36 36 35 35 33 33 32 32 31 31 31 32 32 31 31 31 32 31 30 28 29 30 31 33 34 35 34 36 35 37 38 38 36 35 35 36 40 37 34 40 47 46 46
Lifted_Index
-4 -4 -4 -4 -3 -3 -3 -3 -4 -4 -4 -4 -4 -3 -3 -3 -3 -3 -2 -2 -1 -2 -3 -5 -5 -5 -4 -4 -3 -3 -3 -3 -3 -2 -2 -1 -1 -1 -1 -0 -0 -0 -0
-3 -3 -3 -3 -3 -2 -2 -2 -3 -3 -3 -3 -3 -3 -3 -3 -3 -3 -2 -2 -1 -2 -2 -4 -5 -5 -4 -4 -3 -3 -3 -2 -2 -2 -1 -1 -1 -0 -0 0 1 0 0
-1 -1 -1 -0 0 1 0 -0 -0 -1 -1 -2 -2 -2 -2 -2 -3 -3 -2 -2 -2 -1 -1 -2 -3 -4 -4 -4 -3 -3 -2 -2 -2 -1 -1 -0 -0 0 1 1 1 1 1
4 4 4 5 6 6 5 4 3 3 2 2 1 0 -1 -1 -2 -2 -2 -2 -2 -2 -1 -1 -2 -3 -4 -4 -3 -3 -2 -2 -1 -1 -0 0 1 1 1 2 2 2 2
10 10 10 10 11 11 10 9 8 7 6 6 5 4 3 2 1 0 -1 -1 -1 -1 -1 -1 -1 -2 -2 -3 -3 -3 -2 -2 -2 -1 -0 1 1 2 2 2 3 3 2
14 14 14 14 14 13 13 12 11 10 9 8 8 8 7 6 4 3 1 -0 -1 -1 -1 -1 -1 -1 -2 -2 -3 -3 -2 -2 -2 -1 -0 1 1 2 3 3 3 3 3
16 15 15 15 15 15 14 13 12 11 10 9 9 9 9 8 7 5 3 2 2 1 0 -0 -0 -1 -1 -2 -2 -2 -3 -2 -2 -1 -0 0 1 2 3 3 3 3 3
16 15 15 15 15 15 14 13 12 12 11 10 10 10 10 9 8 7 7 6 5 4 3 3 2 1 -0 -1 -1 -2 -2 -2 -2 -1 -0 0 1 2 3 3 3 3 3
15 15 15 15 15 14 14 13 12 12 12 11 10 10 10 10 10 10 10 9 9 9 8 7 5 4 3 2 0 -1 -2 -2 -2 -1 -0 0 1 2 3 3 3 3 3
15 15 15 15 15 14 14 13 12 12 12 11 11 10 10 11 11 12 12 11 11 11 10 9 8 8 7 5 3 2 0 -1 -1 -1 -0 0 0 1 2 3 3 2 2
15 15 15 15 15 14 14 14 13 13 13 12 12 12 12 12 12 13 13 13 13 12 11 10 10 9 9 8 7 5 4 3 1 -1 -0 0 0 1 2 3 3 2 2
15 15 15 15 15 15 15 15 15 14 14 13 13 13 13 13 13 13 13 14 14 13 12 11 10 9 8 8 8 7 7 7 5 2 0 -0 -0 0 2 3 3 2 2
14 14 14 14 14 15 15 15 15 15 14 14 14 14 13 13 13 13 13 13 13 13 12 11 10 8 8 7 7 8 9 9 8 5 2 0 -0 0 2 3 3 3 2
14 14 14 14 14 14 15 14 14 14 13 13 13 13 13 12 12 12 12 12 12 12 11 10 9 7 7 6 7 7 8 9 9 7 4 1 -0 0 2 3 4 3 3
14 14 14 14 14 14 13 13 13 12 12 11 11 11 11 11 11 11 10 10 10 10 9 8 6 5 5 5 5 6 7 8 9 8 5 2 0 0 2 4 4 4 4
14 14 13 13 13 12 12 11 11 10 10 10 10 10 10 10 9 9 9 8 8 8 7 6 5 4 3 3 3 4 6 7 8 8 7 5 2 1 2 4 5 4 5
14 13 13 12 11 11 10 10 9 9 8 9 9 9 9 9 8 8 8 7 7 7 6 6 5 4 3 2 2 3 4 6 8 8 8 6 4 2 2 4 5 5 5
13 13 12 11 10 9 9 8 8 8 8 9 9 9 9 8 8 7 7 7 7 7 7 6 6 5 4 3 3 3 3 5 7 8 8 7 5 3 2 4 5 5 6
13 13 12 11 10 9 8 7 7 8 9 9 10 10 9 8 8 8 8 8 8 7 7 6 6 5 4 3 3 3 3 4 6 7 7 7 6 3 2 3 5 6 6
12 12 12 11 10 9 8 8 8 9 9 10 10 10 9 9 8 8 8 8 8 7 7 6 6 5 4 3 4 3 3 4 5 5 6 7 6 4 3 4 5 6 6
10 10 10 10 10 10 9 9 9 10 10 10 10 10 9 9 8 8 8 8 8 7 6 6 6 5 4 3 4 4 4 4 4 4 5 6 6 5 4 4 6 6 6
9 9 9 9 9 10 10 10 10 10 10 10 10 9 9 9 8 8 8 8 8 7 7 6 6 5 4 4 4 4 4 4 4 4 4 5 5 5 4 5 6 6 6
8 8 8 8 8 9 10 10 10 10 10 10 9 9 8 8 8 8 8 8 8 8 8 7 6 6 6 6 5 5 5 5 5 5 4 4 5 5 5 5 5 6 6
8 7 7 7 7 8 9 10 10 10 9 9 9 8 8 8 8 8 7 7 7 8 8 8 7 7 7 7 7 6 6 6 6 5 4 4 4 5 5 5 5 6 6
8 7 6 5 5 6 7 8 9 8 8 8 8 8 8 7 8 8 7 7 7 7 7 7 7 7 7 7 7 6 6 6 6 5 4 4 4 5 6 6 5 6 6
8 7 5 4 4 5 6 7 8 8 7 7 7 7 7 7 7 7 7 7 6 6 7 7 7 7 7 7 7 6 6 6 6 5 4 3 4 5 6 6 6 6 6